This demonstration page uses our WeatherBlox Daily Observations layout. Learn more.

Left ArrowRight Arrow

41.12389, -100.76542

Hourly Observations for March 11, 2015

Temp ( °F °C ) Dew Point ( °F °C ) Humidity (%) Winds ( mph kmh ) Pressure ( in mb ) Visibility ( mi km ) Precip ( " mm )
12:53 am 00:53 Clear 31 -0.6 25 -3.9 79 79 Calm 30.16 1021 10 16 0.00 0.00
1:53 am 01:53 Clear 30 -1.1 23 -5 75 75 Calm 30.16 1021 10 16 0.00 0.00
2:53 am 02:53 Clear 28 -2.2 25 -3.9 88 88 Calm 30.17 1022 10 16 0.00 0.00
3:53 am 03:53 Clear 27 -2.8 25 -3.9 92 92 Calm 30.18 1022 10 16 0.00 0.00
4:53 am 04:53 Clear 25 -3.9 21 -6.1 85 85 Calm 30.19 1022 10 16 0.00 0.00
5:53 am 05:53 Clear 26 -3.3 21 -6.1 81 81 Calm 30.20 1023 10 16 0.00 0.00
6:53 am 06:53 Clear 22 -5.6 19 -7.2 89 89 NW 3 6 30.25 1024 10 16 0.00 0.00
7:53 am 07:53 Clear 22 -5.6 18 -7.8 85 85 Calm 30.28 1025 10 16 0.00 0.00
8:53 am 08:53 Sunny 27 -2.8 22 -5.6 81 81 NW 3 6 30.30 1026 10 16 0.00 0.00
9:53 am 09:53 Sunny 36 2.2 28 -2.2 73 73 WNW 3 6 30.29 1026 10 16 0.00 0.00
10:53 am 10:53 Sunny 46 7.8 28 -2.2 50 50 SE 3 6 30.27 1025 10 16 0.00 0.00
11:53 am 11:53 Sunny 59 15 28 -2.2 31 31 SSE 3 6 30.25 1024 10 16 0.00 0.00
12:53 pm 12:53 Sunny 70 21.1 22 -5.6 16 16 S 10 17 30.21 1023 10 16 0.00 0.00
1:53 pm 13:53 Sunny 71 21.7 20 -6.7 14 14 SSW 12 19 30.19 1023 10 16 0.00 0.00
2:53 pm 14:53 Sunny 72 22.2 18 -7.8 13 13 S 15 24 30.17 1022 10 16 0.00 0.00
3:53 pm 15:53 Sunny 73 22.8 17 -8.3 12 12 SSW 13 20 30.15 1021 10 16 0.00 0.00
4:53 pm 16:53 Sunny 73 22.8 17 -8.3 12 12 SSW 16 26 30.14 1021 10 16 0.00 0.00
5:53 pm 17:53 Sunny 72 22.2 17 -8.3 12 12 S 13 20 30.13 1020 10 16 0.00 0.00
6:53 pm 18:53 Sunny 68 20 17 -8.3 14 14 S 10 17 30.13 1020 10 16 0.00 0.00
7:53 pm 19:53 Clear 57 13.9 18 -7.8 22 22 SSE 8 13 30.16 1021 10 16 0.00 0.00
8:53 pm 20:53 Clear 43 6.1 25 -3.9 49 49 S 5 7 30.19 1023 10 16 0.00 0.00
9:53 pm 21:53 Clear 42 5.6 22 -5.6 45 45 ESE 8 13 30.18 1022 10 16 0.00 0.00
10:53 pm 22:53 Clear 44 6.7 22 -5.6 41 41 E 12 19 30.16 1022 10 16 0.00 0.00
11:53 pm 23:53 Clear 46 7.8 22 -5.6 38 38 E 14 22 30.15 1021 10 16 0.00 0.00

Powered by AerisWeather